[[{"header":{"parameterUnit":"m.s-1","parameterCategory":1,"la1":30.2991,"la2":30.254,"lo1":-89.0895,"lo2":-89.0444,"dy":0.0017,"dx":0.0017,"nx":28,"ny":28,"refTime":"2025-05-28T21:00:00:Z","depth":0,"parameterNumber":2,"parameterNumberName":"U-component_of_WINDS"},"data":[0,0,0,0,0,0,0,0,0,0,0,0,0,0,0,0,0,0,0,0,0,0,0,0,0,0,0,0,0,0,0,0,0,0,0,0,0,0,0,0,0,0,0,0,0,0,0,0,0,0,0,0,0,0,0,0,0,0,0.2094,0.2094,0,0.214,0.214,0.2141,0.2105,0.2103,0.2102,0.21,0.2152,0.2155,0.2157,0,0,0,0,0,0,0,0,0,0,0,0,0,0.1979,0.1982,0.2094,0.2094,0.2095,0.214,0.214,0.2141,0.2105,0.2103,0.2101,0.21,0.2151,0.2154,0.2158,0,0,0,0,0,0,0,0,0,0,0,0,0,0.2028,0.1982,0.2094,0.2082,0.2082,0.214,0.214,0.2141,0.2106,0.2103,0.2101,0.2099,0.215,0.2154,0.2158,0.2231,0,0,0.2171,0.2173,0,0,0,0,0,0,0,0,0.2025,0.2032,0.2083,0.2083,0.2083,0.2114,0.2119,0.2171,0.2106,0.2097,0.21,0.2098,0.2141,0.2146,0.216,0.2233,0.2235,0.2171,0.2174,0.2176,0.2177,0,0,0,0,0,0,0,0.2022,0.203,0.2112,0.2084,0.2084,0.2076,0.2081,0.2129,0.2132,0.2097,0.2095,0.2101,0.2141,0.2156,0.2161,0.2236,0.2171,0.2175,0.2178,0.2179,0.2374,0.2376,0,0,0,0,0,0,0.2019,0.2027,0.2111,0.2113,0.2047,0.208,0.2085,0.2107,0.2131,0.2133,0.2103,0.2099,0.215,0.2156,0.2163,0.2251,0.2176,0.218,0.2182,0.2371,0.2374,0.2377,0,0,0,0,0,0,0.2016,0.2027,0.2109,0.207,0.208,0.2085,0.2109,0.2109,0.2124,0.2135,0.2136,0.2117,0.2148,0.2157,0.2214,0.2253,0.2182,0.2185,0.2368,0.2372,0.2376,0.2428,0,0,0,0,0,0,0.2013,0.2026,0.2053,0.207,0.2082,0.2158,0.2111,0.2111,0.2131,0.2126,0.2149,0.2151,0.2147,0.2208,0.2219,0.2257,0.2189,0.2365,0.237,0.2375,0.2423,0.2434,0.2442,0,0,0,0,0,0.2009,0.2066,0.2054,0.2064,0.2115,0.2161,0.2167,0.2161,0.2134,0.2162,0.2169,0.215,0.2246,0.2214,0.2226,0.2266,0.2362,0.2368,0.2374,0.2419,0.2432,0.2442,0,0,0,0,0,0,0.2053,0.2068,0.2055,0.2119,0.2139,0.2154,0.2189,0.2174,0.2203,0.2198,0.219,0.2196,0.2257,0.2267,0.2231,0.2339,0.23,0.2309,0.2331,0.2343,0.2352,0.2349,0.2192,0,0,0,0,0,0.207,0.2105,0.2116,0.2171,0.2182,0.2184,0.2204,0.2197,0.2218,0.2227,0.2238,0.226,0.2296,0.2319,0.2352,0.2424,0.243,0.2458,0.2467,0.2475,0.2483,0.2524,0.2537,0.2397,0.2397,0.2397,0,0,0.2106,0.2118,0.2141,0.2181,0.2195,0.2233,0.2191,0.2232,0.2261,0.2233,0.2289,0.2298,0.2322,0.2388,0.2417,0.2398,0.2523,0.2482,0.2489,0.2493,0.2532,0.2545,0.2557,0.2401,0.24,0.2399,0,0,0.2191,0.2202,0.2251,0.2266,0.2289,0.229,0.2301,0.232,0.2325,0.2379,0.236,0.2394,0.2455,0.2474,0.2491,0.2584,0.2569,0.2595,0.2646,0.2686,0.2698,0.2707,0.2743,0.2756,0.2603,0.2603,0.2603,0,0.2233,0.2287,0.2278,0.2321,0.234,0.2315,0.2365,0.2381,0.2414,0.2429,0.2406,0.2483,0.2497,0.2568,0.2591,0.2605,0.262,0.2594,0.2696,0.2706,0.2715,0.2749,0.2762,0.2606,0.2606,0.2606,0.2605,0,0.2339,0.2378,0.2414,0.2446,0.2469,0.2515,0.2514,0.2539,0.253,0.2535,0.2592,0.2609,0.2646,0.2661,0.2654,0.2732,0.272,0.2697,0.2658,0.2732,0.2764,0.2777,0.2611,0.261,0.2609,0.2608,0,0,0.2454,0.2479,0.2493,0.2508,0.2531,0.2562,0.2608,0.2643,0.2665,0.2689,0.2729,0.2781,0.2761,0.2781,0.2775,0.281,0.2886,0.2783,0.2784,0.2804,0.2976,0.2994,0.3009,0.2874,0.2877,0.2879,0.2974,0,0.2541,0.262,0.2614,0.2689,0.2726,0.2703,0.2744,0.2764,0.2769,0.2802,0.2808,0.2846,0.2815,0.2827,0.286,0.2869,0.292,0.2862,0.2914,0.2916,0.2911,0.3025,0.3045,0.3134,0.2986,0.2988,0.299,0,0.2654,0.2681,0.2761,0.278,0.2795,0.2831,0.2864,0.2895,0.2918,0.2919,0.2942,0.2931,0.2979,0.2938,0.3006,0.2967,0.2988,0.2995,0.2999,0.3005,0.2959,0.3037,0.3162,0.3177,0.3009,0.3008,0.3006,0,0.2733,0.2789,0.2844,0.2857,0.288,0.2907,0.2918,0.2938,0.296,0.2989,0.3004,0.3038,0.3058,0.3085,0.3085,0.3054,0.3155,0.3113,0.316,0.316,0.3184,0.3183,0.3316,0.3193,0.3193,0.3193,0.3193,0,0.2832,0.2883,0.288,0.2914,0.297,0.2962,0.3019,0.3027,0.3045,0.3082,0.3064,0.31,0.3095,0.3132,0.3131,0.319,0.3198,0.3202,0.3202,0.3205,0.3205,0.322,0.3215,0.3196,0.3196,0.3195,0.3194,0,0.293,0.293,0.2989,0.3006,0.3012,0.3053,0.3068,0.3102,0.3105,0.3153,0.3163,0.317,0.3211,0.3213,0.3261,0.3261,0.3332,0.3324,0.3325,0.3324,0.3372,0.3368,0.3522,0.3543,0.3404,0.3405,0.3406,0,0.2995,0.3033,0.3054,0.3077,0.309,0.3127,0.315,0.3144,0.3168,0.3197,0.3228,0.3268,0.33,0.3368,0.3378,0.3415,0.3409,0.346,0.3415,0.3418,0.3413,0.3412,0.3417,0.347,0.3472,0.3473,0.3474,0,0.3111,0.3109,0.3141,0.3175,0.3202,0.3228,0.3252,0.3272,0.3269,0.3298,0.334,0.3364,0.3414,0.3454,0.3491,0.3504,0.349,0.3488,0.3501,0.3506,0.3506,0.3509,0.3351,0.3485,0.3484,0.3483,0.3482,0.3482,0.3195,0.3229,0.325,0.3287,0.3304,0.3328,0.3361,0.3368,0.3403,0.3442,0.3436,0.3484,0.3507,0.3555,0.3571,0.3609,0.3592,0.3611,0.3616,0.3621,0.3628,0.3498,0.3616,0.3615,0.3615,0.3615,0.3615,0,0.3312,0.3324,0.3359,0.3393,0.3423,0.3405,0.3431,0.3458,0.35,0.3522,0.3554,0.3604,0.3643,0.3656,0.3695,0.3724,0.3719,0.3735,0.3734,0.3738,0.364,0.3625,0.3739,0.3738,0.3738,0.3738,0.3738,0.3738,0.3377,0.3433,0.3434,0.35,0.3512,0.3558,0.3575,0.3597,0.3615,0.3671,0.3704,0.3712,0.3731,0.3772,0.3808,0.3811,0.3828,0.3847,0.3848,0.3757,0.3744,0.3732,0.3719,0.385,0.385,0.3943,0.3944,0.3944]},{"header":{"parameterUnit":"m.s-1","parameterCategory":1,"la1":30.2991,"la2":30.254,"lo1":-89.0895,"lo2":-89.0444,"dy":0.0017,"dx":0.0017,"nx":28,"ny":28,"refTime":"2025-05-28T21:00:00:Z","depth":0,"parameterNumber":3,"parameterNumberName":"V-component_of_WINDS"},"data":[0,0,0,0,0,0,0,0,0,0,0,0,0,0,0,0,0,0,0,0,0,0,0,0,0,0,0,0,0,0,0,0,0,0,0,0,0,0,0,0,0,0,0,0,0,0,0,0,0,0,0,0,0,0,0,0,0,0,4.9381,4.9383,0,4.9604,4.9607,4.9609,4.9671,4.967,4.9669,4.9668,4.9894,4.9901,4.9908,0,0,0,0,0,0,0,0,0,0,0,0,0,4.9008,4.9014,4.9381,4.9384,4.9386,4.9604,4.9607,4.961,4.9672,4.967,4.9669,4.9667,4.9892,4.99,4.9909,0,0,0,0,0,0,0,0,0,0,0,0,0,4.9194,4.9016,4.938,4.9443,4.9451,4.9603,4.9607,4.9611,4.9672,4.967,4.9668,4.9666,4.9889,4.9899,4.991,5.0014,0,0,4.9943,4.9947,0,0,0,0,0,0,0,0,4.9183,4.9208,4.9431,4.9439,4.9449,4.9608,4.9558,4.9746,4.9672,4.9588,4.9668,4.9666,4.98,4.9818,4.9864,5.0024,5.0034,4.9944,4.995,4.9955,4.9958,0,0,0,0,0,0,0,4.917,4.9198,4.9469,4.9435,4.9445,4.9461,4.9485,4.9594,4.9702,4.9595,4.96,4.9626,4.9804,4.9853,4.987,5.0038,4.9943,4.9953,4.996,4.9964,5.0298,5.03,0,0,0,0,0,0,4.9147,4.9187,4.9462,4.9476,4.9309,4.9469,4.9496,4.9559,4.9701,4.9721,4.9627,4.9628,4.9836,4.9857,4.9878,5.0011,4.9955,4.9965,4.9971,5.0295,5.0298,5.0301,0,0,0,0,0,0,4.9139,4.9171,4.9453,4.9333,4.937,4.9477,4.9547,4.9564,4.9613,4.9725,4.9745,4.9658,4.9835,4.9863,4.9981,5.002,4.997,4.998,5.0292,5.0296,5.0299,5.0277,0,0,0,0,0,0,4.9128,4.9167,4.9208,4.9334,4.9376,4.9552,4.9549,4.957,4.9632,4.9635,4.9759,4.9777,4.9836,4.9964,4.9991,5.0034,4.9988,5.0289,5.0294,5.0298,5.0274,5.0279,5.0283,0,0,0,0,0,4.9114,4.9191,4.921,4.9242,4.9429,4.9554,4.9578,4.9645,4.9635,4.9677,4.9749,4.9774,5.0011,4.9976,5.0007,5.0053,5.0287,5.0293,5.0298,5.0272,5.0278,5.0283,0,0,0,0,0,0,4.9066,4.9209,4.9231,4.9351,4.944,4.9564,4.9619,4.9648,4.9741,4.974,4.9818,4.9845,4.9958,5.0017,4.9975,5.0163,5.015,5.0162,5.012,5.0126,5.013,5.0114,4.9997,0,0,0,0,0,4.907,4.9159,4.9279,4.9374,4.9417,4.951,4.9567,4.9611,4.9706,4.9743,4.9824,4.9915,5.0011,5.0071,5.0165,5.0284,5.0312,5.0331,5.0335,5.0338,5.0347,5.0417,5.0427,5.0319,5.0318,5.0318,0,0,4.9077,4.9167,4.9218,4.9366,4.944,4.9532,4.9541,4.9637,4.9706,4.9758,4.9874,4.9937,5.0044,5.0163,5.0219,5.0216,5.0384,5.0345,5.0347,5.0355,5.0423,5.0434,5.0443,5.0322,5.0322,5.0321,0,0,4.9139,4.9215,4.9303,4.9378,4.9491,4.9553,4.9574,4.9695,4.9739,4.9857,4.9899,4.9982,5.0144,5.0219,5.0278,5.0371,5.0398,5.04,5.0422,5.0489,5.0497,5.0505,5.054,5.0551,5.0409,5.0409,5.0409,0,4.9134,4.9274,4.9344,4.9439,4.9504,4.9557,4.9648,4.9717,4.9853,4.9897,4.9891,5.0098,5.0173,5.0312,5.0335,5.0381,5.0408,5.0386,5.049,5.0499,5.0508,5.0542,5.0554,5.0408,5.0408,5.0408,5.0408,0,4.9263,4.936,4.9417,4.9551,4.9622,4.9714,4.9799,4.9862,4.9901,4.9963,5.0085,5.0177,5.0292,5.0328,5.0365,5.0473,5.0467,5.0475,5.0464,5.0516,5.055,5.0563,5.0407,5.0408,5.0408,5.0408,0,0,4.9299,4.9472,4.9492,4.9555,4.9684,4.976,4.9855,4.9969,5.0023,5.0116,5.0198,5.0336,5.0345,5.0412,5.0459,5.0517,5.0587,5.0518,5.0522,5.0529,5.0713,5.0707,5.0721,5.0606,5.0608,5.0611,5.0705,0,4.9377,4.955,4.9618,4.9758,4.985,4.9903,4.9986,5.0074,5.0136,5.0222,5.029,5.0387,5.039,5.0432,5.0492,5.0566,5.0625,5.056,5.0684,5.0687,5.0656,5.0738,5.0732,5.0816,5.0718,5.072,5.0722,0,4.9491,4.9588,4.9738,4.986,4.99,4.9974,5.0085,5.0166,5.0268,5.0309,5.0386,5.043,5.0532,5.0515,5.0658,5.0612,5.0666,5.0711,5.0715,5.073,5.0708,5.0756,5.0844,5.0857,5.0743,5.0741,5.074,0,4.9504,4.9672,4.9784,4.9835,4.9979,5.003,5.0092,5.0193,5.0258,5.0354,5.0398,5.0504,5.0563,5.0645,5.0717,5.0697,5.0854,5.0842,5.0891,5.089,5.0922,5.0919,5.1021,5.0956,5.0955,5.0955,5.0955,0,4.9585,4.9675,4.9792,4.9861,4.9964,5.0042,5.0141,5.0207,5.0297,5.038,5.0432,5.0508,5.0599,5.0687,5.0744,5.0855,5.088,5.0917,5.0931,5.0913,5.0908,5.095,5.0946,5.0959,5.0958,5.0957,5.0957,0,4.9616,4.9698,4.9824,4.9951,4.9985,5.0056,5.0164,5.0234,5.0299,5.0403,5.0432,5.0534,5.0641,5.0721,5.0859,5.0898,5.1017,5.1031,5.0982,5.099,5.1035,5.103,5.1169,5.1192,5.1109,5.111,5.111,0,4.9663,4.9734,4.9869,4.9929,4.9992,5.0087,5.0155,5.0234,5.0302,5.0426,5.0481,5.0592,5.0685,5.0854,5.094,5.1047,5.1065,5.1106,5.1081,5.1061,5.1067,5.1063,5.1071,5.1109,5.111,5.111,5.1111,0,4.9737,4.9775,4.987,4.9981,5.006,5.0151,5.0242,5.0288,5.0384,5.0458,5.0569,5.0642,5.0785,5.0895,5.1011,5.1075,5.111,5.1118,5.1136,5.1118,5.1088,5.1106,5.0993,5.1114,5.1114,5.1114,5.1113,5.1113,4.9779,4.9846,4.9952,5.0057,5.0135,5.022,5.0292,5.0367,5.0462,5.0585,5.0626,5.0741,5.0844,5.1004,5.107,5.1161,5.1161,5.1186,5.1192,5.1197,5.1197,5.1072,5.1182,5.1182,5.1182,5.1182,5.1182,0,4.9858,4.9929,5.0026,5.0153,5.0236,5.0263,5.0366,5.0433,5.0535,5.0628,5.072,5.0849,5.0957,5.1052,5.1165,5.122,5.1239,5.1247,5.1244,5.1259,5.119,5.1164,5.123,5.123,5.123,5.123,5.123,5.123,4.9908,5.0023,5.0074,5.0228,5.03,5.0414,5.0471,5.055,5.0626,5.0768,5.0858,5.092,5.1015,5.1136,5.1236,5.1262,5.1301,5.1306,5.1335,5.1269,5.1263,5.1257,5.1234,5.1313,5.1313,5.1396,5.1397,5.1398]}]]